Regional Weather Roundup
Issued by NWS Sioux Falls, SD

Home | Current Version | Previous Version | Graphics & Text | Print | Product List | Glossary On
Versions: 1 2 3 4 5 6 7 8 9 10 11 12 13 14 15 16 17 18 19 20 21 22 23 24 25 26 27 28 29 30 31 32 33 34 35 36 37 38 39 40 41 42 43 44 45 46 47 48 49 50
000
ASUS43 KFSD 250802
RWRFSD

WEATHER ROUNDUP FOR SE SOUTH DAKOTA/SW MINNESOTA/NW IOWA
NATIONAL WEATHER SERVICE SIOUX FALLS SD
300 AM CDT WED MAY 25 2016

NOTE: "FAIR" INDICATES FEW OR NO CLOUDS BELOW 12,000 FEET WITH NO
SIGNIFICANT WEATHER AND OR OBSTRUCTIONS TO VISIBILITY.


SDZ038>040-050-052>070-250900-
SOUTHEAST SOUTH DAKOTA

CITY           SKY/WX    TMP DP  RH WIND       PRES   REMARKS
BROOKINGS      CLOUDY    66  61  84 SE10      29.82F
CHAMBERLAIN    NOT AVBL
HURON          CLOUDY    68  62  81 W10       29.77R THUNDER
MADISON        FAIR      66  66 100 SE10      29.81F
MITCHELL       CLOUDY    69  61  75 SE13      29.74F
SIOUX FALLS    CLOUDY    68  62  81 SE10      29.80F
WINNER         FAIR      59  55  87 NE20G28   29.75R
YANKTON        CLOUDY    68  59  73 SE10      29.75F
$$

MNZ071-072-080-081-089-090-097-098-250900-
SOUTHWEST MINNESOTA

CITY           SKY/WX    TMP DP  RH WIND       PRES   REMARKS
FAIRMONT       CLOUDY    64  54  68 SE7       29.87F
JACKSON        CLOUDY    64  59  82 SE8       29.87F
LUVERNE        CLOUDY    64  59  82 SE8       29.82F
MARSHALL       CLOUDY    67  61  81 SE8       29.84F
MONTEVIDEO     MOCLDY    64  55  72 S5        29.86F
PIPESTONE      CLOUDY    66  61  82 SE9       29.83F
REDWOOD FALLS  CLOUDY    66  57  72 SE8       29.86F
WINDOM         CLOUDY    66  61  82 CALM      29.86F
WORTHINGTON    CLOUDY    64  61  90 SE7       29.85F
$$

IAZ001>003-012>014-020>022-031-032-NEZ013-014-SDZ071-250900-
NORTHWEST IOWA

CITY           SKY/WX    TMP DP  RH WIND       PRES   REMARKS
DENISON        CLOUDY    68  64  88 S9        29.83R
ESTHERVILLE    CLOUDY    63  60  90 SE8       29.86F
SIOUX CITY     CLOUDY    70  63  78 S9        29.80F
SPENCER        CLOUDY    66  61  84 SE9       29.85F
STORM LAKE     CLOUDY    66  63  88 E9        29.83F
$$

ABBREVIATIONS USED IN REMARKS
   TC - TEMPERATURE IN CELSIUS
  WCI - WIND CHILL INDEX
   HX - HEAT INDEX
  VSB - VISIBILITY




USA.gov is the U.S. government's official web portal to all federal, state and local government web resources and services.